Weather reports worldwide

Advertisment
Hawarden, United Kingdom (3321): temperature & dewpoint: 04.04.2020 20:00:00 - 10.04.2020 20:00:00 (BST)Hawarden, United Kingdom (3321): temperature -20cm & temperature -100cm: 04.04.2020 20:00:00 - 10.04.2020 20:00:00 (BST)Hawarden, United Kingdom (3321): wind speed & gusts: 04.04.2020 20:00:00 - 10.04.2020 20:00:00 (BST)Hawarden, United Kingdom (3321): wind direction: 04.04.2020 20:00:00 - 10.04.2020 20:00:00 (BST)Hawarden, United Kingdom (3321): reduced air pressure: 04.04.2020 20:00:00 - 10.04.2020 20:00:00 (BST)Hawarden, United Kingdom (3321): visibility: 04.04.2020 20:00:00 - 10.04.2020 20:00:00 (BST)Hawarden, United Kingdom (3321): sunshine duration: 04.04.2020 20:00:00 - 10.04.2020 20:00:00 (BST)Hawarden, United Kingdom (3321): precipitation: 04.04.2020 20:00:00 - 10.04.2020 20:00:00 (BST)
Date & Time tt [°C] td [°C] tt -20cm [°C] tt -100cm [°C] ff [km/h] ff [kn] fx [km/h] fx [kn] dd ppp [hPa] vv [km] sd [min] rr [mm]
10.04.2020 20:00:00 18,0 10,2 - - 9 5 - - W 1021,7 35 0 0,0
10.04.2020 19:00:00 19,9 10,3 - - 5 3 - - NW 1021,5 16 0 0,0
10.04.2020 18:00:00 20,2 9,9 - - 13 7 - - SSE 1021,2 15 18 0,0
10.04.2020 17:00:00 21,8 10,7 - - 13 7 - - SSE 1021,4 13 60 0,0
10.04.2020 16:00:00 21,3 10,6 - - 16 9 - - SSE 1021,9 13 60 0,0
10.04.2020 15:00:00 19,2 10,7 - - 13 7 - - SSE 1022,7 11 60 0,0
10.04.2020 14:00:00 17,7 10,3 - - 16 9 - - SSE 1023,1 16 42 0,0
10.04.2020 13:00:00 16,7 9,7 - - 24 13 - - SE 1023,5 12 36 0,0
10.04.2020 12:00:00 15,1 8,9 - - 24 13 - - SSE 1024,0 14 30 0,0
10.04.2020 11:00:00 13,3 8,8 - - 21 11 - - SSE 1024,6 12 24 0,0
10.04.2020 10:00:00 11,4 8,0 10,5 8,7 18 10 - - SSE 1024,9 12 6 0,0
10.04.2020 09:00:00 9,8 7,1 - - 21 11 - - SSE 1025,0 10 0 0,0
10.04.2020 08:00:00 8,9 7,0 - - 16 9 - - SSE 1025,0 9 0 0,0
10.04.2020 07:00:00 8,2 6,8 - - 15 8 - - SE 1024,9 8 0 0,0
10.04.2020 06:00:00 8,5 6,9 - - 13 7 - - SE 1024,9 10 0 0,0
10.04.2020 05:00:00 8,6 6,9 - - 11 6 - - SE 1025,1 11 0 0,0
10.04.2020 04:00:00 8,9 7,1 - - 16 9 - - SSE 1025,1 12 0 0,0
10.04.2020 03:00:00 9,3 7,1 - - 16 9 - - SE 1025,3 13 0 0,0
10.04.2020 02:00:00 9,8 7,1 - - 13 7 - - SSE 1025,4 14 0 0,0
10.04.2020 01:00:00 11,1 7,6 - - 16 9 - - SSE 1025,6 14 - 0,0
10.04.2020 00:00:00 11,1 7,7 - - 13 7 - - SSE 1025,9 14 0 0,0
09.04.2020 23:00:00 12,1 8,3 - - 16 9 - - SSE 1025,7 14 0 0,0
09.04.2020 22:00:00 13,1 8,6 - - 15 8 - - SSE 1025,8 17 0 0,0
09.04.2020 21:00:00 13,6 9,0 - - 11 6 - - ESE 1025,5 14 0 0,0
09.04.2020 20:00:00 15,5 9,6 - - 11 6 - - E 1024,8 15 6 0,0
09.04.2020 19:00:00 17,4 9,8 - - 15 8 - - SE 1024,4 17 48 0,0
09.04.2020 18:00:00 18,0 10,1 - - 18 10 - - ESE 1024,5 13 30 0,0
09.04.2020 17:00:00 18,4 10,0 - - 22 12 - - ESE 1024,4 12 30 0,0
09.04.2020 16:00:00 18,6 10,2 - - 18 10 - - ESE 1024,7 10 6 0,0
09.04.2020 15:00:00 18,8 10,1 - - 16 9 - - SSE 1025,1 10 60 0,0
09.04.2020 14:00:00 19,1 9,9 - - 16 9 - - SE 1025,4 16 60 0,0
09.04.2020 13:00:00 18,3 9,3 - - 13 7 - - SSE 1025,8 10 60 0,0
09.04.2020 12:00:00 16,1 9,6 - - 11 6 - - SSE 1026,3 10 24 0,0
09.04.2020 11:00:00 14,1 7,6 - - 16 9 - - SSE 1026,4 24 42 0,0
09.04.2020 10:00:00 12,5 7,7 10,0 8,7 9 5 - - SSE 1026,3 10 60 0,0
09.04.2020 09:00:00 9,7 6,6 - - 9 5 - - SSE 1026,1 23 54 0,0
09.04.2020 08:00:00 6,6 5,3 - - 2 1 - - SSE 1025,7 10 12 0,0
09.04.2020 07:00:00 4,5 3,4 - - 5 3 - - S 1025,4 21 0 0,0
09.04.2020 06:00:00 4,9 3,8 - - 2 1 - - SSW 1025,1 23 0 0,0
09.04.2020 05:00:00 5,2 4,0 - - 5 3 - - S 1025,1 28 0 0,0
09.04.2020 04:00:00 5,7 4,1 - - 0 0 - - N 1025,0 26 0 0,0
09.04.2020 03:00:00 7,1 4,5 - - 4 2 - - NNW 1025,4 28 0 0,0
09.04.2020 02:00:00 7,0 4,4 - - 0 0 - - N 1025,5 27 0 0,0
09.04.2020 01:00:00 7,3 3,8 - - 2 1 - - NNE 1025,4 24 - 0,0
09.04.2020 00:00:00 8,6 3,9 - - 4 2 - - NNW 1025,6 26 0 0,0
08.04.2020 23:00:00 10,1 3,8 - - 5 3 - - NW 1025,4 35 0 0,0
08.04.2020 22:00:00 11,1 4,1 - - 9 5 - - NW 1025,3 40 0 0,0
08.04.2020 21:00:00 11,6 4,7 - - 8 4 - - NW 1025,1 28 0 0,0
08.04.2020 20:00:00 13,1 5,2 - - 13 7 - - NNW 1024,7 40 30 0,0
08.04.2020 19:00:00 14,5 5,8 - - 21 11 - - NW 1024,4 10 12 0,0
08.04.2020 18:00:00 15,9 5,7 - - 22 12 - - NW 1023,9 10 60 0,0
08.04.2020 17:00:00 16,6 5,1 - - 21 11 - - NW 1023,9 10 12 0,0
08.04.2020 16:00:00 17,4 5,1 - - 13 7 - - NW 1024,0 30 48 0,0
08.04.2020 15:00:00 17,6 5,4 - - 13 7 - - NW 1024,4 10 48 0,0
08.04.2020 14:00:00 18,1 6,1 - - 4 2 - - - 1024,7 10 18 0,0
08.04.2020 13:00:00 17,3 5,9 - - 11 6 - - NNW 1025,0 10 54 0,0
08.04.2020 12:00:00 17,8 5,9 - - 4 2 - - - 1025,5 10 60 0,0
08.04.2020 11:00:00 16,3 6,4 - - 5 3 - - - 1025,9 10 60 0,0
08.04.2020 10:00:00 14,2 8,3 9,7 8,5 4 2 - - - 1025,8 10 54 0,0
08.04.2020 09:00:00 9,8 7,1 - - 9 5 - - SSE 1026,0 10 0 0,0
08.04.2020 08:00:00 8,8 6,4 - - 4 2 - - SSE 1025,9 10 0 0,0
08.04.2020 07:00:00 7,7 6,0 - - 4 2 - - SSE 1025,8 20 0 0,0
08.04.2020 06:00:00 7,3 5,4 - - 8 4 - - SSE 1025,9 17 0 0,0
08.04.2020 05:00:00 6,8 5,5 - - 4 2 - - SSW 1026,2 30 0 0,0
08.04.2020 04:00:00 6,7 4,7 - - 2 1 - - SSW 1026,2 25 0 0,0
08.04.2020 03:00:00 7,5 5,2 - - 2 1 - - NW 1026,7 27 0 0,0
08.04.2020 02:00:00 7,3 4,7 - - 4 2 - - SE 1027,0 30 0 0,0
08.04.2020 01:00:00 8,5 5,8 - - 2 1 - - S 1027,3 23 - 0,0
08.04.2020 00:00:00 7,9 3,8 - - 4 2 - - NNE 1027,2 19 0 0,0
07.04.2020 23:00:00 8,6 3,4 - - 2 1 - - NNW 1027,2 22 0 0,0
07.04.2020 22:00:00 9,3 3,6 - - 2 1 - - N 1026,9 28 0 0,0
07.04.2020 21:00:00 11,8 3,7 - - 4 2 - - NW 1027,1 30 0 0,0
07.04.2020 20:00:00 12,5 3,8 - - 11 6 - - NW 1026,8 30 30 0,0
07.04.2020 19:00:00 15,5 5,6 - - 15 8 - - SSE 1026,6 10 60 0,0
07.04.2020 18:00:00 15,8 4,8 - - 16 9 - - S 1026,9 10 60 0,0
07.04.2020 17:00:00 16,1 4,6 - - 18 10 - - S 1027,1 10 60 0,0
07.04.2020 16:00:00 16,4 4,5 - - 22 12 - - SSE 1027,5 10 60 0,0
07.04.2020 15:00:00 16,5 5,1 - - 22 12 - - SSE 1028,1 10 60 0,0
07.04.2020 14:00:00 15,7 4,9 - - 16 9 - - S 1028,5 20 60 0,0
07.04.2020 13:00:00 14,1 4,2 - - 22 12 - - S 1028,9 10 60 0,0
07.04.2020 12:00:00 13,4 2,9 - - 22 12 - - SSE 1029,5 10 60 0,0
07.04.2020 11:00:00 12,0 3,4 - - 21 11 - - SSE 1029,7 10 60 0,0
07.04.2020 10:00:00 9,7 5,0 9,0 8,2 13 7 - - SSE 1030,2 10 60 0,0
07.04.2020 09:00:00 5,7 3,3 - - 8 4 - - SSE 1030,0 10 60 0,0
07.04.2020 08:00:00 3,3 2,4 - - 8 4 - - SSE 1029,8 10 54 0,0
07.04.2020 07:00:00 1,5 1,0 - - 8 4 - - S 1029,4 13 0 0,0
07.04.2020 06:00:00 1,9 1,1 - - 5 3 - - S 1029,0 14 0 0,0
07.04.2020 05:00:00 2,3 1,2 - - 5 3 - - S 1028,7 17 0 0,0
07.04.2020 04:00:00 2,6 1,3 - - 4 2 - - SSE 1028,5 20 0 0,0
07.04.2020 03:00:00 3,1 1,5 - - 8 4 - - S 1028,1 17 0 0,0
07.04.2020 02:00:00 4,4 1,4 - - 8 4 - - SE 1027,7 19 0 0,0
07.04.2020 01:00:00 5,6 2,9 - - 9 5 - - E 1027,1 18 - 0,0
07.04.2020 00:00:00 6,3 2,2 - - 9 5 - - SSE 1026,3 18 0 0,0
06.04.2020 23:00:00 7,5 3,2 - - 11 6 - - SSE 1025,6 26 0 0,0
06.04.2020 22:00:00 9,6 1,9 - - 13 7 - - WSW 1024,9 27 0 0,0
06.04.2020 21:00:00 9,3 1,6 - - 13 7 - - SW 1024,1 29 0 0,0
06.04.2020 20:00:00 10,6 1,2 - - 9 5 - - SW 1022,8 30 36 0,0
06.04.2020 19:00:00 12,4 1,2 - - 13 7 - - WSW 1021,9 10 60 0,0
06.04.2020 18:00:00 14,1 1,0 - - 16 9 - - W 1021,0 10 60 0,0
06.04.2020 17:00:00 14,5 1,5 - - 18 10 - - WSW 1019,9 10 60 0,0
06.04.2020 16:00:00 14,8 1,0 - - 22 12 - - WSW 1018,8 10 60 0,0
06.04.2020 15:00:00 15,2 2,6 - - 24 13 - - WSW 1018,1 10 60 0,0
06.04.2020 14:00:00 14,6 1,7 - - 22 12 - - W 1017,0 10 48 0,0
06.04.2020 13:00:00 13,4 4,4 - - 13 7 - - WNW 1016,0 10 42 0,0
06.04.2020 12:00:00 12,5 6,1 - - 18 10 - - W 1014,9 10 36 0,0
06.04.2020 11:00:00 12,7 7,1 - - 18 10 - - W 1013,7 10 48 0,2
06.04.2020 10:00:00 12,5 5,6 9,2 8,2 26 14 - - SW 1012,4 10 60 0,0
06.04.2020 09:00:00 11,4 7,2 - - 26 14 - - SSW 1011,5 10 48 0,0
06.04.2020 08:00:00 10,2 6,7 - - 11 6 - - S 1010,3 10 18 0,0
06.04.2020 07:00:00 8,1 5,2 - - 9 5 - - SSW 1009,1 19 0 0,0
06.04.2020 06:00:00 10,1 6,1 - - 11 6 - - SW 1007,9 17 0 0,0
06.04.2020 05:00:00 10,7 6,7 - - 13 7 - - SW 1006,7 24 0 0,0
06.04.2020 04:00:00 11,4 7,6 - - 9 5 - - SW 1005,7 50 0 1,0
06.04.2020 03:00:00 12,8 10,9 - - 24 13 - - S 1004,1 7 0 0,0
06.04.2020 02:00:00 14,0 10,1 - - 31 17 46 25 S 1003,5 25 0 0,0
06.04.2020 01:00:00 14,0 9,7 - - 24 13 - - S 1003,7 30 - 0,0
06.04.2020 00:00:00 15,2 7,8 - - 26 14 50 27 SSE 1003,7 35 0 0,0
05.04.2020 23:00:00 15,4 7,4 - - 34 18 46 25 SSE 1003,2 40 0 0,0
05.04.2020 22:00:00 15,0 7,1 - - 24 13 - - SSE 1004,0 40 0 0,0
05.04.2020 21:00:00 15,8 6,9 - - 29 16 52 28 SSE 1004,5 40 0 0,0
05.04.2020 20:00:00 17,1 6,3 - - 31 17 54 29 SSE 1004,4 50 18 0,0
05.04.2020 19:00:00 19,0 6,7 - - 28 15 61 33 SSE 1004,2 28 60 0,0
05.04.2020 18:00:00 20,2 5,7 - - 37 20 54 29 SSE 1004,4 35 60 0,0
05.04.2020 17:00:00 20,8 7,3 - - 34 18 52 28 SSE 1004,7 35 30 0,0
05.04.2020 16:00:00 19,0 6,6 - - 28 15 48 26 SSE 1005,7 10 0 0,0
05.04.2020 15:00:00 18,4 5,8 - - 34 18 57 31 SSE 1006,8 10 42 0,0
05.04.2020 14:00:00 18,5 5,7 - - 34 18 48 26 SSE 1007,5 30 54 0,0
05.04.2020 13:00:00 16,1 5,8 - - 24 13 - - SSE 1008,6 10 42 0,0
05.04.2020 12:00:00 13,9 4,9 - - 21 11 - - SSE 1009,5 10 0 0,0
05.04.2020 11:00:00 12,4 4,6 - - 22 12 - - SSE 1010,4 10 0 0,0
05.04.2020 10:00:00 10,8 4,1 8,2 8,0 18 10 - - SSE 1011,1 10 42 0,0
05.04.2020 09:00:00 9,3 4,0 - - 13 7 - - SSE 1011,9 10 60 0,0
05.04.2020 08:00:00 6,3 2,9 - - 11 6 - - SSE 1012,6 29 54 0,0
05.04.2020 07:00:00 4,1 1,4 - - 13 7 - - SSE 1012,4 30 0 0,0
05.04.2020 06:00:00 4,2 0,6 - - 13 7 - - S 1012,7 30 0 0,0
05.04.2020 05:00:00 4,9 1,1 - - 11 6 - - SSW 1013,4 35 0 0,0
05.04.2020 04:00:00 5,2 0,9 - - 9 5 - - SSE 1014,3 35 0 0,0
05.04.2020 03:00:00 6,6 2,1 - - 21 11 - - SSE 1014,7 50 0 0,0
05.04.2020 02:00:00 7,0 2,5 - - 16 9 - - SSE 1015,3 40 0 0,0
05.04.2020 01:00:00 7,0 2,1 - - 5 3 - - ENE 1016,1 35 - 0,0
05.04.2020 00:00:00 6,5 2,9 - - 9 5 - - SSE 1016,3 29 0 0,0
04.04.2020 23:00:00 8,2 3,1 - - 9 5 - - S 1016,3 35 0 0,0
04.04.2020 22:00:00 7,8 3,5 - - 9 5 - - S 1016,4 23 0 0,0
04.04.2020 21:00:00 10,6 4,4 - - 13 7 - - SSE 1016,2 40 0 0,0
04.04.2020 20:00:00 11,8 4,7 - - 13 7 - - SSE 1015,7 35 0 0,0

tt = temperature
td = dewpoint
tt -20cm = temperature -20cm
tt -100cm = temperature -100cm
ff = wind speed
fx = gusts
dd = wind direction
ppp = reduced air pressure
vv = visibility
sd = sunshine duration
rr = precipitation

Next stations